Flag for Germany Weather past 2 weeks in Zerbst/Anhalt, Saxony-Anhalt, Germany

Now
63 °F

Scattered clouds.


Feels Like: 63 °F
Forecast: 49 / 64 °F
Wind: 2 mph from West

Location: Magdeburg

Current Time: May 22, 2015 at 2:10:00 PM

Latest Report: May 22, 2015 at 1:00 PM


Visibility: 22 mi

Pressure: 30.29 "Hg

Humidity: 47%

Dew point: 43 °F

Location of Zerbst/AnhaltLocation

Historic Weather in Zerbst/Anhalt — Graph

°F

Zerbst/Anhalt temperature yesterday

Maximum temperature yesterday: 61 °F (at 3:00 PM)
Minimum temperature yesterday: 40 °F (at 6:00 AM)
Average temperature yesterday: 52 °F

Past Weeks' High & Low Weather Summary

 TemperatureHumidityPressure
High80 °F (May 12, 4:00 PM)97% (May 15, 5:00 AM)30.38 "Hg (May 15, 5:00 AM)
Low38 °F (May 15, 5:00 AM)33% (May 18, 6:00 PM)29.61 "Hg (May 19, 2:00 AM)
Average55 °F64%30.05 "Hg
* Reported May 7 1:00 PM — May 22 1:00 PM, Zerbst/Anhalt, Weather by CustomWeather, © 2015

Note: Actual official high and low records may vary slightly from our data, if they occured in-between our weather recording intervals... More about our weather records

Advertising

Zerbst/Anhalt weather history for previous 24 hours

 ConditionsComfort  
Time TempWeatherWind HumidityBarometerVisibility
1:00 PM
Fri, May 22
63 °FScattered clouds.2 mph47%30.29 "Hg22 mi
12:00 PM62 °FPartly sunny.2 mph51%30.30 "Hg25 mi
10:00 AM58 °FPartly sunny.2 mph57%30.32 "Hg25 mi
9:00 AM56 °FScattered clouds.2 mph56%30.32 "Hg25 mi
8:00 AM54 °FPassing clouds.1 mph60%30.32 "Hg25 mi
7:00 AM49 °FPassing clouds.1 mph69%30.32 "Hg25 mi
6:00 AM45 °FScattered clouds.2 mph80%30.32 "Hg19 mi
4:00 AM47 °FOvercast.1 mph76%30.32 "Hg19 mi
3:00 AM45 °FPassing clouds.2 mph80%30.32 "Hg19 mi
2:00 AM46 °FPassing clouds.2 mph78%30.32 "Hg19 mi
1:00 AM47 °FClear.1 mph79%30.32 "Hg16 mi
12:00 AM47 °FClear.2 mph81%30.32 "Hg16 mi
10:00 PM
Thu, May 21
50 °FClear.1 mph73%30.30 "Hg22 mi
9:00 PM54 °FSunny.1 mph63%30.29 "Hg31 mi
8:00 PM58 °FSunny.1 mph50%30.27 "Hg22 mi
7:00 PM58 °FPassing clouds.2 mph52%30.26 "Hg37 mi
6:00 PM58 °FOvercast.2 mph49%30.25 "Hg43 mi
4:00 PM61 °FPartly sunny.3 mph51%30.25 "Hg31 mi
3:00 PM61 °FPartly sunny.3 mph45%30.24 "Hg31 mi
2:00 PM59 °FPartly sunny.5 mph42%30.23 "Hg31 mi
Weather by CustomWeather, © 2015

See weather overviewHow to use our weather pages